CW0621 Weather Reports


Display with metric or nautical units.
time (UTC)temp
F
wind
direction
speed
MPH
gust
MPH
rain 1hr
in
rain 24hr
in
rain mn
in
humidity
%
barometer
mb
20260903121543 76 104 0.0 0.0 0.00 0.00 0.00 87 1013.7
20260903120009 75 104 0.0 0.0 0.00 0.00 0.00 88 1013.6
20260903114537 75 124 0.0 0.0 0.00 0.00 0.00 89 1013.6
20260903113003 75 81 0.0 0.0 0.00 0.00 0.00 89 1013.4
20260903111543 74 91 0.0 0.0 0.00 0.00 0.00 91 1013.3
20260903104529 73 75 0.0 0.0 0.00 0.00 0.00 93 1013.1
20260903103104 73 98 0.0 0.0 0.00 0.00 0.00 93 1013.1
20260903101626 73 89 0.0 0.0 0.00 0.00 0.00 93 1013.0
20260903100058 73 89 0.0 0.0 0.00 0.00 0.00 94 1013.0
20260903094523 73 136 0.0 0.0 0.00 0.00 0.00 94 1012.9
20260903093101 73 349 0.0 0.0 0.00 0.00 0.00 93 1012.9
20260903091529 73 349 0.0 0.0 0.00 0.00 0.00 93 1012.7
20260903090047 73 282 0.0 0.0 0.00 0.00 0.00 93 1012.7
20260903084531 74 282 0.0 0.0 0.00 0.00 0.00 92 1012.7
20260903083039 74 282 0.0 0.0 0.00 0.00 0.00 92 1012.6
20260903081504 74 157 0.0 0.0 0.00 0.00 0.00 92 1012.6
20260903080031 74 209 0.0 0.0 0.00 0.00 0.00 92 1012.5
20260903074602 75 209 0.0 0.0 0.00 0.00 0.00 92 1012.5
20260903073028 75 209 0.0 0.0 0.00 0.00 0.00 92 1012.4
20260903071556 75 209 0.0 0.0 0.00 0.00 0.00 92 1012.5
20260903070025 75 209 0.0 0.0 0.00 0.00 0.00 92 1012.5
20260903064552 75 238 0.0 0.0 0.00 0.00 0.00 91 1012.6
20260903063013 76 238 0.0 0.0 0.00 0.00 0.00 90 1012.6
20260903061540 76 238 0.0 0.0 0.00 0.00 0.00 89 1012.6
20260903060003 76 247 0.0 0.0 0.00 0.00 0.00 89 1012.6
20260903054531 77 247 0.0 0.0 0.00 0.00 0.00 88 1012.6
20260903053100 77 77 0.0 0.0 0.00 0.00 0.00 87 1012.6
20260903051522 78 133 0.0 0.0 0.00 0.00 0.00 86 1012.4
20260903050048 78 246 0.0 0.0 0.00 0.00 0.00 85 1012.4
20260903044512 79 326 0.0 0.0 0.00 0.00 0.00 84 1012.2
20260903043038 79 248 0.0 0.0 0.00 0.00 0.00 85 1012.1
20260903041603 79 53 0.0 0.0 0.00 0.00 0.00 85 1012.0
20260903040026 79 142 0.0 0.0 0.00 0.00 0.00 85 1011.9
20260903034553 79 64 0.0 1.0 0.00 0.00 0.00 85 1011.8
20260903033025 80 243 0.0 0.0 0.00 0.00 0.00 85 1011.8
20260903031555 79 58 0.0 0.0 0.00 0.00 0.00 85 1011.9
20260903030020 79 131 0.0 0.0 0.00 0.00 0.00 86 1012.0
20260903024548 79 60 0.0 0.0 0.00 0.00 0.00 86 1012.2
20260903023025 79 72 0.0 0.0 0.00 0.00 0.00 86 1012.3
20260903021545 79 244 0.0 0.0 0.00 0.00 0.00 87 1012.4
20260903020030 79 352 0.0 0.0 0.00 0.00 0.00 86 1012.3
20260903014540 79 233 0.0 0.0 0.00 0.00 0.00 86 1012.1
20260903013008 80 233 0.0 0.0 0.00 0.00 0.00 85 1012.0
20260903011538 80 233 0.0 0.0 0.00 0.00 0.00 83 1012.0
20260903010101 81 233 0.0 0.0 0.00 0.00 0.00 82 1011.8
20260903004527 82 241 0.0 0.0 0.00 0.00 0.00 80 1011.7
20260903003055 82 91 0.0 0.0 0.00 0.00 0.00 78 1011.6
20260903001522 83 219 0.0 0.0 0.00 0.00 0.00 77 1011.7
20260903000056 84 243 0.0 0.0 0.00 0.00 0.00 75 1011.8
20260902234515 85 56 0.0 0.0 0.00 0.00 0.00 73 1011.8
20260902233043 86 79 0.0 0.0 0.00 0.00 0.00 71 1011.8
20260902231510 86 255 0.0 0.0 0.00 0.00 0.00 69 1011.9
20260902230040 87 127 0.0 0.0 0.00 0.00 0.00 67 1011.9
20260902224513 88 144 0.0 0.0 0.00 0.00 0.00 66 1011.9
20260902223030 88 79 0.0 0.0 0.00 0.00 0.00 64 1011.8
20260902221613 89 226 0.0 3.0 0.00 0.00 0.00 61 1011.9
20260902220023 90 238 0.0 3.0 0.00 0.00 0.00 61 1012.0
20260902214550 90 244 0.0 0.0 0.00 0.00 0.00 60 1012.0
20260902213018 91 263 0.0 3.0 0.00 0.00 0.00 58 1012.1
20260902211553 92 307 0.0 4.0 0.00 0.00 0.00 57 1012.2
20260902210010 93 57 0.0 3.0 0.00 0.00 0.00 55 1012.2
20260902204551 93 27 0.0 4.0 0.00 0.00 0.00 57 1012.4
20260902203002 94 125 0.0 5.0 0.00 0.00 0.00 54 1012.5
20260902201538 95 60 0.0 0.0 0.00 0.00 0.00 52 1012.6
20260902200101 94 72 0.0 1.0 0.00 0.00 0.00 52 1012.7
20260902194532 94 121 0.0 2.0 0.00 0.00 0.00 54 1012.8
20260902193048 95 238 0.0 3.0 0.00 0.00 0.00 51 1013.0
20260902191519 95 77 0.0 1.0 0.00 0.00 0.00 51 1013.1
20260902190043 96 38 0.0 0.0 0.00 0.00 0.00 51 1013.3
20260902184506 95 150 0.0 0.0 0.00 0.00 0.00 50 1013.3
20260902183041 94 56 0.0 4.0 0.00 0.00 0.00 50 1013.3
20260902181502 95 110 0.0 2.0 0.00 0.00 0.00 50 1013.5
20260902180028 94 68 0.0 3.0 0.00 0.00 0.00 52 1013.6
20260902174556 94 60 0.0 0.0 0.00 0.00 0.00 54 1013.7
20260902173032 93 147 0.0 1.0 0.00 0.00 0.00 51 1013.9
20260902171554 93 241 0.0 2.0 0.00 0.00 0.00 56 1013.9
20260902170013 92 61 0.0 3.0 0.00 0.00 0.00 54 1014.1
20260902164555 93 76 0.0 0.0 0.00 0.00 0.00 58 1014.3
20260902163002 91 264 0.0 3.0 0.00 0.00 0.00 58 1014.3
20260902161531 91 82 0.0 0.0 0.00 0.00 0.00 60 1014.5
20260902160100 90 65 0.0 4.0 0.00 0.00 0.00 59 1014.4
20260902154530 89 181 0.0 3.0 0.00 0.00 0.00 63 1014.4
20260902153046 88 217 0.0 2.0 0.00 0.00 0.00 64 1014.5
20260902151509 87 120 0.0 0.0 0.00 0.00 0.00 66 1014.6
20260902150035 85 167 0.0 3.0 0.00 0.01 0.00 68 1014.5
20260902144609 84 162 0.0 0.0 0.00 0.01 0.00 72 1014.4
20260902143025 83 113 0.0 0.0 0.00 0.01 0.00 74 1014.4
20260902141554 81 75 0.0 0.0 0.00 0.01 0.00 75 1014.2
20260902140015 80 75 0.0 0.0 0.00 0.01 0.00 78 1014.3
20260902134541 79 104 0.0 0.0 0.00 0.01 0.00 80 1014.3
20260902133006 78 114 0.0 0.0 0.00 0.01 0.00 82 1014.4
20260902131529 77 301 0.0 0.0 0.00 0.01 0.00 84 1014.5
20260902124521 75 27 0.0 0.0 0.00 0.01 0.00 89 1014.7
20260902123049 74 122 0.0 0.0 0.00 0.01 0.00 90 1014.6